Satellite: POLLUX
Catalog number: 35693
Epoch time:      10087.99866888
Element set:     352
Inclination:      051.6099 deg
RA of node:       254.5746 deg
Eccentricity:    0.0006270
Arg of perigee:   294.4866 deg
Mean anomaly:     097.5899 deg
Mean motion:   16.52338462 rev/day
Decay rate:  2.3496735e-01 rev/day^2
Epoch rev:            3839
Checksum:              384

Satellite: CO-66
Catalog number: 32791
Epoch time:      10176.22694704
Element set:    0699
Inclination:      097.8947 deg
RA of node:       240.8879 deg
Eccentricity:    0.0014955
Arg of perigee:   258.0188 deg
Mean anomaly:     101.9350 deg
Mean motion:   14.81677436 rev/day
Decay rate:       4.79e-06 rev/day^2
Epoch rev:           11664
Checksum:              359

Satellite: CO-58
Catalog number: 28895
Epoch time:      10176.68584118
Element set:     616
Inclination:      098.0131 deg
RA of node:       060.8821 deg
Eccentricity:    0.0016727
Arg of perigee:   257.6383 deg
Mean anomaly:     102.2967 deg
Mean motion:   14.59903806 rev/day
Decay rate:       1.32e-06 rev/day^2
Epoch rev:           24822
Checksum:              324

Satellite: MAST
Catalog number: 31126
Epoch time:      10176.75754232
Element set:    0899
Inclination:      097.9373 deg
RA of node:       218.3276 deg
Eccentricity:    0.0094226
Arg of perigee:   198.7093 deg
Mean anomaly:     161.0621 deg
Mean motion:   14.53596464 rev/day
Decay rate:       1.72e-06 rev/day^2
Epoch rev:           16930
Checksum:              318

Satellite: DO-64
Catalog number: 32789
Epoch time:      10176.82183942
Element set:    0718
Inclination:      097.9018 deg
RA of node:       242.0734 deg
Eccentricity:    0.0014329
Arg of perigee:   255.6671 deg
Mean anomaly:     104.2984 deg
Mean motion:   14.82186697 rev/day
Decay rate:       8.29e-06 rev/day^2
Epoch rev:           11678
Checksum:              346

Satellite: CP6
Catalog number: 35004
Epoch time:      10176.94805716
Element set:    0328
Inclination:      040.4598 deg
RA of node:       153.0009 deg
Eccentricity:    0.0019563
Arg of perigee:   091.0811 deg
Mean anomaly:     269.2268 deg
Mean motion:   15.46379686 rev/day
Decay rate:      6.904e-05 rev/day^2
Epoch rev:           06207
Checksum:              310

Satellite: AEROCUB3
Catalog number: 35005
Epoch time:      10176.97217937
Element set:    0372
Inclination:      040.4679 deg
RA of node:       149.9678 deg
Eccentricity:    0.0016444
Arg of perigee:   107.6024 deg
Mean anomaly:     252.6653 deg
Mean motion:   15.51791114 rev/day
Decay rate:     2.0983e-04 rev/day^2
Epoch rev:           06211
Checksum:              304

Satellite: TACSAT-3
Catalog number: 35001
Epoch time:      10176.98455324
Element set:    0320
Inclination:      040.4539 deg
RA of node:       161.2591 deg
Eccentricity:    0.0020474
Arg of perigee:   067.5897 deg
Mean anomaly:     292.7094 deg
Mean motion:   15.41858355 rev/day
Decay rate:      3.097e-05 rev/day^2
Epoch rev:           06199
Checksum:              312

Satellite: AAUSAT2
Catalog number: 32788
Epoch time:      10177.15135082
Element set:     700
Inclination:      097.8948 deg
RA of node:       241.9163 deg
Eccentricity:    0.0014066
Arg of perigee:   258.1388 deg
Mean anomaly:     101.8274 deg
Mean motion:   14.82038616 rev/day
Decay rate:       5.00e-06 rev/day^2
Epoch rev:           11683
Checksum:              296

Satellite: PHARMSAT
Catalog number: 35002
Epoch time:      10177.32383088
Element set:     302
Inclination:      040.4672 deg
RA of node:       157.1895 deg
Eccentricity:    0.0022768
Arg of perigee:   075.0759 deg
Mean anomaly:     285.2577 deg
Mean motion:   15.42381862 rev/day
Decay rate:      2.642e-05 rev/day^2
Epoch rev:            6206
Checksum:              295

Satellite: HAWKSAT1
Catalog number: 35003
Epoch time:      10177.34357173
Element set:     324
Inclination:      040.4581 deg
RA of node:       151.6076 deg
Eccentricity:    0.0020651
Arg of perigee:   090.3837 deg
Mean anomaly:     269.9344 deg
Mean motion:   15.45535497 rev/day
Decay rate:      5.924e-05 rev/day^2
Epoch rev:            6213
Checksum:              287

Satellite: FALCON
Catalog number: 30776
Epoch time:      10177.57672451
Element set:     857
Inclination:      035.4348 deg
RA of node:       347.2854 deg
Eccentricity:    0.0001900
Arg of perigee:   300.5397 deg
Mean anomaly:     059.5131 deg
Mean motion:   15.03695846 rev/day
Decay rate:       3.72e-06 rev/day^2
Epoch rev:           18147
Checksum:              306

Satellite: RS-30
Catalog number: 32953
Epoch time:      10177.62708940
Element set:     818
Inclination:      082.5007 deg
RA of node:       023.8086 deg
Eccentricity:    0.0019940
Arg of perigee:   081.3177 deg
Mean anomaly:     279.0156 deg
Mean motion:   12.43005735 rev/day
Decay rate:        1.0e-07 rev/day^2
Epoch rev:            9491
Checksum:              288

Satellite: METEOR-M
Catalog number: 35865
Epoch time:      10177.70481521
Element set:     418
Inclination:      098.7574 deg
RA of node:       231.4355 deg
Eccentricity:    0.0002677
Arg of perigee:   357.2670 deg
Mean anomaly:     002.8441 deg
Mean motion:   14.21830720 rev/day
Decay rate:       1.76e-06 rev/day^2
Epoch rev:            4007
Checksum:              281

